TimeCDT,TemperatureF,Dew PointF,Humidity,Sea Level PressureIn,VisibilityMPH,Wind Direction,Wind SpeedMPH,Gust SpeedMPH,PrecipitationIn,Events,Conditions,WindDirDegrees,DateUTC
12:55 AM,71.1,59.0,66,29.75,10.0,Variable,3.5,-,N/A,,Clear,0,2013-07-05 05:55:00
1:55 AM,70.0,57.9,65,29.75,10.0,Variable,3.5,-,N/A,,Clear,0,2013-07-05 06:55:00
2:55 AM,68.0,57.9,70,29.75,10.0,SSE,3.5,-,N/A,,Clear,150,2013-07-05 07:55:00
3:55 AM,66.9,57.0,70,29.75,10.0,Variable,3.5,-,N/A,,Clear,0,2013-07-05 08:55:00
4:55 AM,68.0,57.0,68,29.75,10.0,Variable,3.5,-,N/A,,Clear,0,2013-07-05 09:55:00
5:55 AM,68.0,57.9,70,29.74,10.0,Variable,3.5,-,N/A,,Clear,0,2013-07-05 10:55:00
6:55 AM,69.1,57.9,68,29.74,10.0,Variable,6.9,-,N/A,,Clear,0,2013-07-05 11:55:00
7:55 AM,72.0,59.0,64,29.75,10.0,Variable,6.9,-,N/A,,Partly Cloudy,0,2013-07-05 12:55:00
8:55 AM,71.1,60.1,68,29.76,10.0,Variable,5.8,-,N/A,,Overcast,0,2013-07-05 13:55:00
9:55 AM,73.9,61.0,64,29.75,10.0,Variable,6.9,-,N/A,,Partly Cloudy,0,2013-07-05 14:55:00
10:55 AM,75.0,62.1,64,29.75,10.0,Calm,Calm,-,N/A,,Scattered Clouds,0,2013-07-05 15:55:00
11:55 AM,79.0,64.0,60,29.74,10.0,SSE,6.9,-,N/A,,Mostly Cloudy,160,2013-07-05 16:55:00
12:55 PM,80.1,63.0,56,29.73,10.0,South,8.1,17.3,N/A,,Scattered Clouds,170,2013-07-05 17:55:00
1:55 PM,82.0,63.0,52,29.71,10.0,SSW,11.5,20.7,N/A,,Clear,200,2013-07-05 18:55:00
2:55 PM,82.0,64.0,54,29.71,10.0,Variable,6.9,-,N/A,,Clear,0,2013-07-05 19:55:00
3:55 PM,84.0,64.9,53,29.70,10.0,Variable,6.9,19.6,N/A,,Clear,0,2013-07-05 20:55:00
4:55 PM,80.1,64.0,58,29.71,10.0,SSW,6.9,-,N/A,,Partly Cloudy,200,2013-07-05 21:55:00
5:55 PM,82.0,64.0,54,29.71,10.0,SW,12.7,17.3,N/A,,Mostly Cloudy,230,2013-07-05 22:55:00
6:55 PM,82.0,64.9,56,29.70,10.0,SSW,9.2,17.3,N/A,,Partly Cloudy,200,2013-07-05 23:55:00
7:55 PM,79.0,64.0,60,29.70,10.0,South,5.8,-,N/A,,Scattered Clouds,190,2013-07-06 00:55:00
8:02 PM,78.8,64.4,61,29.71,10.0,South,4.6,-,N/A,Thunderstorm,Scattered Clouds,190,2013-07-06 01:02:00
8:43 PM,71.6,66.2,83,29.72,1.5,North,6.9,-,0.01,Rain-Thunderstorm,Thunderstorms and Rain,350,2013-07-06 01:43:00
8:50 PM,69.8,66.2,88,29.76,0.5,WNW,9.2,-,0.07,Fog-Rain-Thunderstorm,Heavy Thunderstorms and Rain,290,2013-07-06 01:50:00
8:55 PM,68.0,66.0,93,29.74,0.2,North,24.2,33.4,0.29,Fog-Rain-Thunderstorm,Heavy Thunderstorms and Rain,350,2013-07-06 01:55:00
9:04 PM,69.8,62.6,78,29.76,0.8,Variable,4.6,25.3,0.20,Rain-Thunderstorm,Light Thunderstorms and Rain,0,2013-07-06 02:04:00
9:06 PM,69.8,64.4,83,29.76,2.0,Variable,6.9,19.6,0.20,Rain-Thunderstorm,Light Thunderstorms and Rain,0,2013-07-06 02:06:00
9:14 PM,68.0,66.2,94,29.76,1.0,SE,5.8,-,0.59,Rain-Thunderstorm,Heavy Thunderstorms and Rain,130,2013-07-06 02:14:00
9:19 PM,69.8,66.2,88,29.75,2.5,SE,6.9,-,0.66,Rain-Thunderstorm,Light Thunderstorms and Rain,130,2013-07-06 02:19:00
9:26 PM,69.8,66.2,88,29.74,6.0,SE,4.6,-,0.66,Rain-Thunderstorm,Light Thunderstorms and Rain,130,2013-07-06 02:26:00
9:55 PM,69.1,66.0,90,29.75,10.0,Variable,3.5,-,0.66,Thunderstorm,Thunderstorm,0,2013-07-06 02:55:00
10:15 PM,69.8,66.2,88,29.76,10.0,SW,3.5,-,N/A,,Mostly Cloudy,230,2013-07-06 03:15:00
10:55 PM,66.9,66.0,97,29.76,10.0,Calm,Calm,-,N/A,,Partly Cloudy,0,2013-07-06 03:55:00
11:55 PM,68.0,66.0,93,29.77,10.0,Calm,Calm,-,N/A,,Partly Cloudy,0,2013-07-06 04:55:00